Location: Lake Zurich
(42.1970°N, 88.0930°W)
Time: 22:10:11
(UTC-05:00)

Daily predictions for brighter satellites

Satellite Brightness Start Highest point End
(mag) Time Altitude Azimuth Time Altitude Azimuth Time Altitude Azimuth
Resurs 01 Rocket 1.8 19:49:37 10° SSE 19:54:02 83° WSW 19:58:31 10° NNW
Cosmos 1536 4.5 19:54:41 10° SSW 19:58:29 41° WNW 20:02:19 10° N
Cosmos 1570 Rocket 4.3 19:53:21 10° SSW 19:58:39 78° WNW 20:03:57 10° NNE
METEOR-M 4.4 19:54:10 10° S 19:59:30 78° WSW 20:04:54 10° NNW
Cosmos 1697 Rocket 3.2 19:57:25 10° S 20:02:30 35° ESE 20:07:35 10° NE
Meteor 2-16 Rocket 4.5 19:57:57 10° S 20:04:02 88° E 20:10:09 10° N
Helios 1A 3.5 20:00:17 10° S 20:04:24 63° WSW 20:08:36 10° NNW
Cosmos 1461 4.0 20:05:31 10° NW 20:09:21 42° WSW 20:13:04 10° S
ERS-1 Rocket 4.0 20:08:57 10° ESE 20:13:08 27° ENE 20:17:19 10° N
Cosmos 2278 4.1 20:09:20 10° SSW 20:14:58 69° WNW 20:20:41 10° NNE
RESURS DK-1 3.2 20:11:39 10° N 20:15:27 34° ENE 20:18:51 12° ESE
Cosmos 2150 Rocket 4.2 20:13:28 10° N 20:18:31 52° ENE 20:23:32 10° SE
OTV 4 3.1 20:19:25 10° SW 20:20:35 12° SSW 20:21:44 10° S
CZ-4 DEB 4.1 20:19:00 14° ESE 20:20:49 22° ENE 20:23:20 10° NNE
OAO 2 Rocket 4.1 20:19:57 10° WSW 20:24:31 37° S 20:28:13 15° ESE
Cosmos 1763 Rocket 4.4 20:20:30 10° SSE 20:24:32 24° E 20:28:34 10° NE
USA 186 1.4 20:23:27 10° SSE 20:26:27 68° ENE 20:29:15 10° N
Cosmos 1980 Rocket 2.8 20:21:28 10° SSE 20:26:30 34° ESE 20:31:34 10° NE
ALOS 2.4 20:22:05 10° S 20:26:46 83° WSW 20:31:29 10° NNW
Cosmos 2369 4.4 20:24:20 10° SW 20:29:56 59° WNW 20:35:36 10° NNE
H-2A R/B 2.8 20:26:07 10° SSE 20:30:00 89° WSW 20:33:59 10° NNW
Cosmos 1898 Rocket 3.5 20:26:26 10° NNW 20:31:45 72° ENE 20:36:59 10° SSE
Cosmos 2173 Rocket 4.4 20:25:57 10° SSE 20:31:49 41° E 20:37:40 10° NNE
Cosmos 1605 Rocket 4.3 20:31:42 10° SSW 20:38:01 73° W 20:44:16 10° N
Cosmos 2084 3.6 20:34:47 10° NW 20:38:49 67° WSW 20:42:28 14° SSE
H-2A R/B 3.4 20:37:53 18° E 20:39:23 22° ENE 20:42:35 10° NNE
DELTA 2 R/B (1) 4.3 20:34:46 10° W 20:39:59 41° SSW 20:43:49 17° SE
FENGYUN 3A 4.0 20:34:40 10° S 20:39:59 68° WSW 20:45:21 10° NNW
Cosmos 1626 Rocket 3.9 20:37:10 10° NNW 20:41:33 69° W 20:45:51 10° S
Cosmos 1656 3.8 20:36:10 10° SSW 20:41:47 81° WNW 20:47:22 10° NNE
Cosmos 468 Rocket 3.9 20:38:27 10° SSW 20:43:34 77° ESE 20:48:42 10° NNE
EO 1 Delta rocket 4.3 20:39:14 10° N 20:43:58 73° WNW 20:49:32 10° SSW
Cosmos 1666 4.3 20:45:23 17° ENE 20:45:23 17° ENE 20:47:24 10° NE
CZ-3C R/B 4.4 19:57:28 10° W 20:46:51 31° SSW 20:55:42 11° SSE
Cosmos 1975 3.4 20:43:01 10° SSW 20:47:04 61° W 20:51:10 10° N
Cosmos 2100 Rocket 4.0 20:42:31 10° S 20:48:41 61° E 20:54:48 10° NNE
Cosmos 841 Rocket 4.0 20:44:02 10° SSE 20:48:46 36° ESE 20:53:30 10° NE
Tiangong 1 1.1 20:46:06 10° W 20:49:11 63° SSW 20:50:14 36° SE
Cosmos 2263 Rocket 4.0 20:47:14 10° N 20:50:32 16° NE 20:52:51 13° ENE
Lacrosse 5 rocket 3.4 20:48:26 10° WNW 20:51:04 19° WSW 20:53:39 10° S
YAOGAN 11 4.1 20:48:04 17° SSE 20:51:31 65° ENE 20:55:56 10° N
Cosmos 1602 Rocket 4.4 20:47:25 10° NNW 20:51:46 53° W 20:56:02 10° S
YAOGAN 6 4.3 20:53:36 18° ENE 20:53:39 18° ENE 20:56:13 10° NNE
Cosmos 1758 Rocket 4.4 20:50:30 10° NNE 20:54:25 32° ENE 20:55:32 27° ESE
Cosmos 1500 3.3 20:52:04 10° SSW 20:55:48 74° W 20:59:36 10° N
Cosmos 2227 Rocket 4.0 20:51:29 10° NW 20:56:19 30° WSW 21:01:08 10° SSW
Cosmos 1814 Rocket 4.0 20:51:01 10° SSW 20:56:21 84° ESE 21:01:41 10° NNE
ASTEX 1 4.2 20:53:25 10° NNE 20:57:48 30° E 20:58:58 27° ESE
Cosmos 2322 Rocket 3.1 21:00:47 25° E 21:00:47 25° E 21:05:12 10° NE
Cosmos 2061 Rocket 3.9 20:55:47 10° S 21:02:01 70° E 21:08:15 10° NNE
Cosmos 1340 2.8 20:59:04 10° N 21:02:49 54° ENE 21:03:55 38° SE
deb Chang Zheng 4 4.1 21:00:34 10° NNE 21:04:43 37° E 21:05:36 33° SE
Cosmos 2297 Rocket 3.8 21:06:19 10° NW 21:11:14 31° WSW 21:16:08 10° SSW
Meteor 2-9 Rocket 4.5 21:12:18 31° SE 21:14:13 42° E 21:19:16 10° NNE
Cosmos 1459 Rocket 3.9 21:08:50 10° S 21:14:54 90° ESE 21:21:03 10° N
Cosmos 2360 4.1 21:11:52 10° S 21:17:30 64° ESE 21:23:11 10° NNE
Meteor 1-21 4.2 21:13:00 10° N 21:18:49 80° E 21:22:11 27° SSE
Cosmos 1725 Rocket 4.2 21:18:11 30° SE 21:20:53 48° E 21:26:51 10° NNE
Cosmos 2227 4.1 21:16:37 10° NNW 21:22:24 82° ENE 21:24:54 35° SSE
Cosmos 2058 Rocket 3.2 21:22:25 48° ESE 21:23:03 52° E 21:27:26 10° NNE
Cosmos 1606 Rocket 3.5 21:22:36 24° S 21:25:14 88° E 21:29:42 10° N
Cosmos 1939 Rocket 3.1 21:24:09 34° S 21:25:53 71° W 21:30:04 10° NNW
Envisat 3.0 21:26:38 29° S 21:29:17 79° WSW 21:34:24 10° NNW
Lacrosse 5 2.8 21:26:19 10° WNW 21:31:02 40° SW 21:32:59 28° S
Cosmos 1937 Rocket 4.4 21:26:37 10° NNW 21:31:40 47° WSW 21:35:09 19° SSW
BREEZE-M DEB (TANK) 4.2 21:30:34 10° WNW 21:34:35 79° NNE 21:39:46 31° ESE
BREEZE-M DEB (TANK) 2.0 21:33:00 10° WNW 21:35:24 82° NNE 21:35:26 82° NE
Cosmos 1743 3.9 21:34:26 10° SSW 21:38:05 42° WNW 21:41:50 10° N
SPOT 5 2.8 21:38:12 54° SSE 21:39:19 81° ENE 21:44:07 10° NNW
Cosmos 2233 Rocket 4.3 21:43:02 44° E 21:43:26 44° E 21:49:18 10° NNE
Cosmos 1697 Rocket 4.3 21:41:18 10° WSW 21:46:26 35° WNW 21:51:35 10° N
Cosmos 1726 Rocket 3.9 21:46:06 33° SSW 21:47:54 62° W 21:52:17 10° N
ERS-1 Rocket 4.2 21:48:35 18° SSW 21:51:44 37° W 21:56:23 10° NNW
RESURS DK-1 4.5 21:50:11 10° NW 21:53:18 21° WSW 21:54:48 17° SW
H-2A R/B 3.1 21:56:29 30° NE 21:56:29 30° NE 22:00:06 10° N
ARGOS 3.1 21:57:44 64° E 21:58:00 66° ENE 22:03:22 10° N
Terra 3.3 21:59:15 25° NE 21:59:15 25° NE 22:02:10 10° N
SL-16 R/B 2.0 21:57:52 67° SE 21:58:19 71° ESE 22:03:59 10° NNE
NOAA 11 4.1 21:58:50 66° ESE 21:59:13 69° ENE 22:04:40 10° N
MetOp-B 4.4 22:07:20 54° SSW 22:08:18 65° WSW 22:13:38 10° NNW
Cosmos 1980 Rocket 3.6 22:05:12 10° SW 22:10:25 37° WNW 22:15:41 10° N
Cosmos 2360 Rocket 4.0 22:14:22 18° NE 22:14:22 18° NE 22:15:54 10° NE
SPOT 1/Viking Rocket 3.5 22:15:02 82° WSW 22:15:02 82° WSW 22:20:17 10° NNW
H-2A R/B 3.4 22:15:02 31° WSW 22:15:13 31° W 22:18:57 10° NW
Cosmos 2228 3.9 22:20:01 47° NW 22:20:01 47° NW 22:23:34 10° N
Cosmos 1125 Rocket 3.8 22:14:54 10° NNW 22:20:01 58° WSW 22:20:07 58° WSW
USA 215 3.8 22:21:34 42° ENE 22:23:06 50° NNE 22:29:22 10° NW
SL-19 R/B 4.2 22:19:19 10° N 22:24:44 73° WNW 22:24:57 72° W
BREEZE-M DEB (TANK) 3.2 22:18:01 10° W 22:27:35 68° NNW 22:27:44 67° N
BREEZE-M DEB (TANK) 3.6 22:13:56 10° WNW 22:31:13 86° NNE 22:31:51 74° ESE
Cosmos 2263 Rocket 2.3 22:29:40 10° NNW 22:34:32 69° NNW 22:34:32 69° NNW
Cosmos 540 Rocket 4.0 22:39:10 55° NNW 22:39:10 55° NNW 22:43:35 10° NNE
Cosmos 2346 Rocket 4.5 22:37:31 10° N 22:43:35 75° W 22:43:35 75° W
Cosmos 2322 Rocket 3.0 22:42:28 34° WSW 22:44:26 47° WNW 22:49:53 10° NNE
Meteor 2-5 Rocket 4.1 22:45:09 10° NNW 22:50:21 65° NW 22:50:21 65° NW
Meteor 1-24 Rocket 4.3 22:56:01 10° N 23:00:45 56° N 23:00:45 56° N
ATLAS CENTAUR R/B 4.2 23:16:15 66° ESE 23:16:15 66° ESE 23:37:00 10° NE
Cosmos 2278 Rocket 3.9 23:22:33 10° N 23:25:52 25° NNE 23:25:52 25° NNE
H-2A R/B 4.0 23:37:08 22° WNW 23:37:08 22° WNW 23:39:28 10° NW
Terra 4.0 23:38:09 21° NW 23:38:09 21° NW 23:40:07 10° NNW
SL-16 R/B 4.5 23:39:37 12° W 23:43:00 20° NW 23:47:07 10° N
Cosmos 1844 Rocket 4.2 23:41:10 10° NNW 23:44:10 33° NNW 23:44:10 33° NNW
Cosmos 2360 Rocket 3.8 23:56:06 31° NNW 23:56:06 31° NNW 23:59:58 10° N
